Regional Weather Roundup
Issued by NWS

Home | Current Version | Previous Version | Text Only | Print | Product List | Glossary On
Versions: 1 2 3 4 5 6 7 8 9 10 11 12 13 14 15 16 17 18 19 20 21 22 23 24 25 26 27 28 29 30 31 32 33 34 35 36 37 38 39 40 41 42 43 44 45 46 47 48 49 50
000
ASUS43 KIND 051459
RWRIN

WEATHER ROUNDUP FOR INDIANA
NATIONAL WEATHER SERVICE INDIANAPOLIS IN
1100 AM EDT THU MAY 05 2016

NOTE: "FAIR" INDICATES FEW OR NO CLOUDS BELOW 12,000 FEET WITH NO
SIGNIFICANT WEATHER AND/OR OBSTRUCTIONS TO VISIBILITY.

* - STATION DOES NOT REPORT WEATHER SUCH AS PRECIPITATION OR FOG.

+ - STATION NOT QUALITY CONTROLLED BY THE NATIONAL WEATHER SERVICE.
    USE DATA WITH CAUTION...ESPECIALLY DEWPOINT AND RELATIVE
    HUMIDITY OBSERVATIONS.

INZ001>003-010>013-019-020-051600-
NORTHWEST INDIANA

CITY           SKY/WX    TMP DP  RH WIND       PRES   REMARKS
GARY /AIRPORT/ PTSUNNY   46  45  93 N17G29    30.01R
RENSSELAER +   CLOUDY    45  43  93 N13G22    29.96R

$$

LMZ046-743>745-051600-
SOUTHERN LAKE MICHIGAN

STATION/POSITION TIME  TEMP    WIND        PRES    WAVE
                       AIR SEA DIR/SP/G            HT
                 (UTC) (F)     (DEG/KT/KT) (MB)    (FT)
BURNS HARBOR     1415   42     360/ 17/ 20 1015.9R
MICHIGAN CITY    1400   42     350/ 17/ 20   N/A

$$

INZ004-005-014>016-021>024-051600-
NORTH CENTRAL INDIANA

CITY           SKY/WX    TMP DP  RH WIND       PRES   REMARKS
ELKHART        MOSUNNY   52  48  87 N7        29.94R
GOSHEN         MOSUNNY   53  46  77 N10       29.91R
SOUTH BEND     PTSUNNY   50  44  80 N10       29.95R

$$

INZ006>009-017-018-025>027-051600-
NORTHEAST INDIANA

CITY           SKY/WX    TMP DP  RH WIND       PRES   REMARKS
ANGOLA *+        N/A     54  46  76 N6        29.88S
FORT WAYNE     PTSUNNY   53  44  71 N14       29.88R

$$

INZ028-029-035-036-043>045-051>053-051600-
WEST CENTRAL INDIANA

CITY           SKY/WX    TMP DP  RH WIND       PRES   REMARKS
CRAWFORDSVL +  CLOUDY    46  46 100 NW10G18   29.93R
GREENCASTLE +  CLOUDY    45  45 100 N14       29.92R
LAFAYETTE      CLOUDY    46  41  82 N15       29.94R
TERRE HAUTE    PTSUNNY   50  42  74 NW17      29.93R

$$

INZ030>032-037>040-046>048-054>057-064-065-051600-
CENTRAL INDIANA

CITY           SKY/WX    TMP DP  RH WIND       PRES   REMARKS
ANDERSON       CLOUDY    45  45 100 N8        29.89R FOG
COLUMBUS       CLOUDY    46  41  81 N10       29.89R
INDIANAPOLIS   CLOUDY    46  41  82 N10       29.89R
-EAGLE CREEK   CLOUDY    46  43  89 N7        29.90R FOG
KOKOMO *+      CLOUDY    48  43  81 N15       29.90R
SHELBYVILLE    CLOUDY    50  42  74 N12       29.87R

$$

INZ033-034-041-042-049-050-058-059-051600-
EAST CENTRAL INDIANA

CITY           SKY/WX    TMP DP  RH WIND       PRES   REMARKS
MUNCIE         CLOUDY    48  44  86 N9        29.87R

$$

INZ060-061-067>069-081>083-085>088-051600-
SOUTHWEST INDIANA

CITY           SKY/WX    TMP DP  RH WIND       PRES   REMARKS
EVANSVILLE     CLOUDY    48  39  71 N14G23    29.93R
HUNTINGBURG *+ PTSUNNY   48  39  71 N12G17    29.90R

$$

INZ062-063-066-070>080-084-089>092-051600-
SOUTH CENTRAL AND SOUTHEAST INDIANA

CITY           SKY/WX    TMP DP  RH WIND       PRES   REMARKS
BLOOMINGTON    CLOUDY    50  40  68 N14       29.90R
MADISON *+     CLOUDY    45  36  70 N7        29.88R
SEYMOUR +      CLOUDY    48  39  71 N12       29.88R

$$




USA.gov is the U.S. government's official web portal to all federal, state and local government web resources and services.